When you browse on this site, cookies collect data to enhance your experience and personalize the content and advertising you see.
Visit our Privacy Policy to learn more. By continuing to use the site, you agree to this use of cookies and data.
  • în România
  • Lista ţărilor
  • Pe 7 zile
  • Temperatura apei
  • Hartă satelitară
  • Meteo pe hartă
  • Widget-uri
  • user-avatar
    Intrare

    Meteo pe oră la Rumyancevo

    Astăzi, 17 Noiembrie, Sâmbătă

    Timp Temperatura Precipitaţii Vânt Presiune Umiditate
    00:00 -3°C° 0 mm 0 m/s 763 mmHg 23%
    01:00 -2°C° 0 mm 1 m/s 763 mmHg 23%
    02:00 -2°C° 0 mm 1 m/s 763 mmHg 23%
    03:00 -2°C° 0 mm 1 m/s 763 mmHg 24%
    04:00 -2°C° 0 mm 1 m/s 762 mmHg 25%
    05:00 -2°C° 0 mm 1 m/s 762 mmHg 25%
    06:00 -2°C° 0 mm 1 m/s 761 mmHg 25%
    07:00 -4°C° 0 mm 2 m/s 761 mmHg 26%
    08:00 -4°C° 0 mm 2 m/s 761 mmHg 27%
    09:00 -4°C° 0 mm 2 m/s 761 mmHg 26%
    10:00 -4°C° 0 mm 3 m/s 760 mmHg 26%
    11:00 -2°C° 0 mm 3 m/s 760 mmHg 25%
    12:00 -1°C° 0 mm 3 m/s 760 mmHg 24%
    13:00 -1°C° 0 mm 3 m/s 759 mmHg 26%
    14:00 -1°C° 0 mm 4 m/s 758 mmHg 27%
    15:00 -1°C° 0 mm 4 m/s 757 mmHg 29%
    16:00 -2°C° 0 mm 4 m/s 757 mmHg 31%
    17:00 -2°C° 0 mm 4 m/s 756 mmHg 33%
    18:00 -3°C° 0 mm 4 m/s 755 mmHg 35%
    19:00 -3°C° 0 mm 4 m/s 755 mmHg 36%
    20:00 -4°C° 0 mm 5 m/s 754 mmHg 38%
    21:00 -4°C° 0 mm 5 m/s 753 mmHg 39%
    22:00 -4°C° 0 mm 5 m/s 753 mmHg 41%
    23:00 -4°C° 0 mm 5 m/s 752 mmHg 43%

    Mâine, 18 Noiembrie, Duminică

    Timp Temperatura Precipitaţii Vânt Presiune Umiditate
    00:00 -4°C° 0 mm 5 m/s 751 mmHg 45%
    01:00 -4°C° 0.1 mm 5 m/s 751 mmHg 51%
    02:00 -4°C° 0.1 mm 5 m/s 750 mmHg 56%
    03:00 -4°C° 0.1 mm 5 m/s 750 mmHg 61%
    04:00 -4°C° 0 mm 5 m/s 749 mmHg 61%
    05:00 -4°C° 0 mm 5 m/s 748 mmHg 62%
    06:00 -3°C° 0 mm 4 m/s 748 mmHg 63%
    07:00 -3°C° 0 mm 4 m/s 748 mmHg 66%
    08:00 -3°C° 0 mm 4 m/s 747 mmHg 69%
    09:00 -3°C° 0 mm 4 m/s 747 mmHg 72%
    10:00 -3°C° 0 mm 4 m/s 747 mmHg 74%
    11:00 -1°C° 0 mm 3 m/s 747 mmHg 76%
    12:00 -1°C° 0 mm 3 m/s 747 mmHg 78%
    13:00 -1°C° 0 mm 3 m/s 747 mmHg 79%
    14:00 -1°C° 0 mm 3 m/s 747 mmHg 81%
    15:00 -1°C° 0 mm 2 m/s 747 mmHg 82%
    16:00 -1°C° 0 mm 2 m/s 747 mmHg 84%
    17:00 -1°C° 0 mm 2 m/s 748 mmHg 85%
    18:00 -2°C° 0 mm 2 m/s 748 mmHg 87%
    19:00 -2°C° 0 mm 2 m/s 748 mmHg 88%
    20:00 -2°C° 0 mm 2 m/s 748 mmHg 89%
    21:00 0°C° 0 mm 1 m/s 748 mmHg 90%
    22:00 0°C° 0 mm 1 m/s 749 mmHg 91%
    23:00 0°C° 0 mm 1 m/s 749 mmHg 91%

    Poimâine, 19 Noiembrie, Luni

    Timp Temperatura Precipitaţii Vânt Presiune Umiditate
    00:00 0°C° 0 mm 1 m/s 749 mmHg 91%
    01:00 0°C° 0 mm 1 m/s 749 mmHg 91%
    02:00 0°C° 0 mm 1 m/s 750 mmHg 92%
    03:00 0°C° 0 mm 1 m/s 750 mmHg 92%
    04:00 0°C° 0 mm 1 m/s 750 mmHg 92%
    05:00 0°C° 0 mm 1 m/s 750 mmHg 93%
    06:00 -1°C° 0 mm 0 m/s 751 mmHg 93%
    07:00 0°C° 0 mm 1 m/s 751 mmHg 94%
    08:00 0°C° 0 mm 1 m/s 751 mmHg 94%
    09:00 0°C° 0 mm 1 m/s 752 mmHg 94%
    10:00 +1°C° 0 mm 1 m/s 752 mmHg 91%
    11:00 +1°C° 0 mm 1 m/s 753 mmHg 89%
    12:00 +2°C° 0 mm 1 m/s 753 mmHg 86%
    13:00 +2°C° 0 mm 1 m/s 753 mmHg 87%
    14:00 +2°C° 0 mm 1 m/s 753 mmHg 88%
    15:00 +2°C° 0 mm 1 m/s 754 mmHg 89%
    16:00 +1°C° 0 mm 1 m/s 754 mmHg 91%
    17:00 -2°C° 0 mm 2 m/s 754 mmHg 93%
    18:00 -2°C° 0 mm 2 m/s 754 mmHg 95%
    19:00 -2°C° 0 mm 2 m/s 754 mmHg 95%
    20:00 -2°C° 0 mm 2 m/s 754 mmHg 96%
    21:00 -3°C° 0 mm 2 m/s 754 mmHg 96%
    22:00 -2°C° 0 mm 2 m/s 754 mmHg 96%
    23:00 -2°C° 0 mm 2 m/s 754 mmHg 95%

    20 Noiembrie, Marţi

    Timp Temperatura Precipitaţii Vânt Presiune Umiditate
    00:00 -2°C° 0 mm 2 m/s 754 mmHg 95%
    01:00 -2°C° 0 mm 2 m/s 754 mmHg 95%
    02:00 -2°C° 0 mm 2 m/s 754 mmHg 95%
    03:00 -2°C° 0 mm 2 m/s 754 mmHg 96%
    04:00 -2°C° 0 mm 2 m/s 754 mmHg 96%
    05:00 -2°C° 0 mm 2 m/s 754 mmHg 96%
    06:00 -2°C° 0 mm 2 m/s 754 mmHg 96%
    07:00 -2°C° 0 mm 2 m/s 754 mmHg 96%
    08:00 -2°C° 0 mm 2 m/s 754 mmHg 95%
    09:00 -2°C° 0 mm 2 m/s 754 mmHg 94%
    10:00 -1°C° 0 mm 2 m/s 753 mmHg 91%
    11:00 -1°C° 0 mm 2 m/s 753 mmHg 88%
    12:00 -1°C° 0 mm 2 m/s 753 mmHg 85%
    13:00 -1°C° 0 mm 2 m/s 753 mmHg 84%
    14:00 -1°C° 0 mm 2 m/s 752 mmHg 83%
    15:00 -1°C° 0 mm 2 m/s 752 mmHg 82%
    16:00 -1°C° 0 mm 2 m/s 752 mmHg 83%
    17:00 -1°C° 0 mm 2 m/s 752 mmHg 84%
    18:00 -2°C° 0 mm 2 m/s 752 mmHg 85%
    19:00 0°C° 0 mm 1 m/s 752 mmHg 85%
    20:00 0°C° 0 mm 1 m/s 751 mmHg 85%
    21:00 0°C° 0 mm 1 m/s 751 mmHg 85%
    22:00 0°C° 0 mm 1 m/s 751 mmHg 85%
    23:00 0°C° 0 mm 1 m/s 751 mmHg 85%

    21 Noiembrie, Miercuri

    Timp Temperatura Precipitaţii Vânt Presiune Umiditate
    00:00 0°C° 0 mm 1 m/s 751 mmHg 85%
    01:00 0°C° 0 mm 1 m/s 751 mmHg 85%
    02:00 0°C° 0 mm 1 m/s 750 mmHg 85%
    03:00 -2°C° 0 mm 2 m/s 750 mmHg 85%
    04:00 -2°C° 0 mm 2 m/s 750 mmHg 85%
    05:00 -2°C° 0 mm 2 m/s 750 mmHg 85%
    06:00 -2°C° 0 mm 2 m/s 749 mmHg 85%
    07:00 -2°C° 0 mm 3 m/s 749 mmHg 84%
    08:00 -2°C° 0 mm 3 m/s 749 mmHg 84%
    09:00 -2°C° 0 mm 3 m/s 749 mmHg 83%
    10:00 -2°C° 0 mm 3 m/s 749 mmHg 80%
    11:00 -3°C° 0 mm 4 m/s 749 mmHg 77%
    12:00 -3°C° 0 mm 4 m/s 749 mmHg 74%
    13:00 -3°C° 0 mm 4 m/s 749 mmHg 74%
    14:00 -3°C° 0 mm 4 m/s 749 mmHg 74%
    15:00 -3°C° 0 mm 4 m/s 748 mmHg 74%
    16:00 -3°C° 0 mm 4 m/s 748 mmHg 76%
    17:00 -4°C° 0 mm 4 m/s 748 mmHg 77%
    18:00 -4°C° 0 mm 4 m/s 748 mmHg 79%
    19:00 -4°C° 0 mm 4 m/s 748 mmHg 80%
    20:00 -4°C° 0 mm 4 m/s 748 mmHg 81%
    21:00 -4°C° 0 mm 3 m/s 748 mmHg 83%
    22:00 -4°C° 0 mm 3 m/s 748 mmHg 84%
    23:00 -2°C° 0 mm 3 m/s 748 mmHg 85%

    22 Noiembrie, Joi

    Timp Temperatura Precipitaţii Vânt Presiune Umiditate
    00:00 -2°C° 0 mm 3 m/s 748 mmHg 86%
    01:00 -4°C° 0 mm 3 m/s 748 mmHg 87%
    02:00 -4°C° 0 mm 3 m/s 748 mmHg 87%
    03:00 -4°C° 0 mm 3 m/s 748 mmHg 88%
    04:00 -4°C° 0 mm 3 m/s 748 mmHg 86%
    05:00 -5°C° 0 mm 3 m/s 748 mmHg 85%
    06:00 -5°C° 0 mm 3 m/s 748 mmHg 84%
    07:00 -5°C° 0 mm 3 m/s 747 mmHg 83%
    08:00 -4°C° 0 mm 4 m/s 747 mmHg 83%
    09:00 -4°C° 0 mm 4 m/s 747 mmHg 82%
    10:00 -4°C° 0 mm 4 m/s 747 mmHg 78%
    11:00 -5°C° 0 mm 5 m/s 747 mmHg 75%
    12:00 -4°C° 0 mm 5 m/s 747 mmHg 71%
    13:00 -4°C° 0 mm 5 m/s 747 mmHg 72%
    14:00 -4°C° 0 mm 5 m/s 747 mmHg 73%
    15:00 -4°C° 0 mm 6 m/s 746 mmHg 73%
    16:00 -4°C° 0 mm 6 m/s 746 mmHg 75%
    17:00 -5°C° 0 mm 6 m/s 746 mmHg 77%
    18:00 -5°C° 0 mm 6 m/s 746 mmHg 79%
    19:00 -5°C° 0 mm 6 m/s 747 mmHg 79%
    20:00 -4°C° 0 mm 6 m/s 747 mmHg 80%
    21:00 -4°C° 0 mm 5 m/s 747 mmHg 81%
    22:00 -4°C° 0 mm 5 m/s 747 mmHg 82%
    23:00 -4°C° 0 mm 5 m/s 747 mmHg 83%
    Arată mai mult